Home > Weather > Porto > Past weeks

Flag for Portugal Past Weather in Porto, Portugal — Yesterday and Last 2 Weeks

Now
70 °F

Clear.


Feels Like: 70 °F
Forecast: 58 / 82 °F
Wind: 2 mph from North

Location: Porto / Pedras Rubras

Current Time: Jul 26, 2016 at 9:32:50 AM

Latest Report: Jul 26, 2016 at 9:00 AM


Visibility: 6 mi

Pressure: 30.04 "Hg

Humidity: 83%

Dew Point: 64 °F

Location of PortoLocation

Past Weather in Porto — Graph

°F

Porto Temperature Yesterday

Maximum temperature yesterday: 93 °F (at 12:00 PM)
Minimum temperature yesterday: 63 °F (at 10:30 PM)
Average temperature yesterday: 76 °F

High & Low Weather Summary for the Past Weeks

 TemperatureHumidityPressure
High93 °F (Jul 15, 2:30 PM)100% (Jul 17, 5:30 AM)30.21 "Hg (Jul 17, 5:30 AM)
Low54 °F (Jul 12, 3:30 AM)16% (Jul 15, 3:00 PM)29.92 "Hg (Jul 18, 5:00 AM)
Average69 °F70%30.06 "Hg
* Reported Jul 11 8:00 AM — Jul 26 8:30 AM, Porto, Weather by CustomWeather, © 2016

Note: Actual official high and low records may vary slightly from our data, if they occured in-between our weather recording intervals... More about our weather records

Advertising

Porto Weather History for the Previous 24 Hours

Scroll right to see more
 ConditionsComfort  
Time TempWeatherWind HumidityBarometerVisibility
8:30 AM
Tue, Jul 26
68 °FClear.2 mph88%30.04 "Hg6 mi
8:00 AM68 °FClear.3 mph88%30.04 "Hg5 mi
7:30 AM63 °FClear.1 mph94%30.04 "Hg5 mi
7:00 AM59 °FClear.2 mph100%30.04 "Hg4 mi
6:30 AM59 °FClear.No wind94%30.01 "Hg4 mi
6:00 AM57 °FClear.1 mph100%30.01 "Hg10 mi
5:30 AM57 °FClear.3 mph100%30.01 "Hg6 mi
5:00 AM57 °FClear.6 mph100%30.01 "Hg5 mi
4:30 AM59 °FClear.5 mph100%30.01 "Hg10 mi
4:00 AM59 °FClear.3 mph94%30.01 "Hg10 mi
3:30 AM61 °FClear.5 mph94%30.01 "Hg10 mi
3:00 AM63 °FClear.6 mph88%30.01 "Hg10 mi
2:30 AM59 °FClear.3 mph100%30.01 "Hg10 mi
2:00 AM61 °FClear.5 mph94%30.01 "Hg10 mi
1:30 AM61 °FClear.3 mph94%30.01 "Hg10 mi
1:00 AM64 °FClear.5 mph83%30.01 "Hg10 mi
12:30 AM63 °FClear.7 mph88%30.01 "Hg10 mi
12:00 AM63 °FClear.No wind88%30.01 "Hg10 mi
11:30 PM
Mon, Jul 25
63 °FClear.No wind88%30.01 "Hg10 mi
11:00 PM64 °FClear.1 mph88%30.01 "Hg10 mi
10:30 PM63 °FClear.No wind88%30.01 "Hg10 mi
10:00 PM66 °FClear.3 mph83%30.01 "Hg10 mi
9:30 PM68 °FSunny.3 mph83%30.01 "Hg10 mi
9:00 PM70 °FSunny.3 mph78%30.01 "Hg10 mi
8:30 PM73 °FSunny.5 mph69%30.01 "Hg10 mi
8:00 PM75 °FSunny.6 mph65%30.01 "Hg10 mi
7:30 PM79 °FPassing clouds.6 mph58%30.01 "HgN/A
7:00 PM81 °FPassing clouds.7 mph54%30.01 "HgN/A
6:30 PM82 °FPassing clouds.7 mph51%30.01 "HgN/A
6:00 PM84 °FSunny.9 mph45%30.01 "Hg10 mi
5:30 PM86 °FPassing clouds.9 mph38%30.01 "HgN/A
5:00 PM88 °FSunny.12 mph33%30.01 "Hg10 mi
4:30 PM86 °FSunny.13 mph35%30.01 "Hg10 mi
4:00 PM86 °FSunny.14 mph38%30.01 "Hg10 mi
3:30 PM86 °FSunny.14 mph38%30.01 "Hg10 mi
3:00 PM86 °FPassing clouds.10 mph40%30.04 "HgN/A
2:30 PM86 °FSunny.9 mph43%30.01 "Hg10 mi
2:00 PM86 °FPassing clouds.8 mph46%30.04 "HgN/A
1:30 PM86 °FSunny.9 mph49%30.04 "Hg10 mi
1:00 PM86 °FSunny.7 mph49%30.04 "Hg10 mi
12:30 PM90 °FSunny.7 mph43%30.04 "Hg10 mi
12:00 PM93 °FSunny.3 mph24%30.04 "Hg10 mi
11:30 AM91 °FPassing clouds.6 mph24%30.04 "HgN/A
11:00 AM91 °FPassing clouds.7 mph26%30.04 "HgN/A
10:30 AM90 °FPassing clouds.7 mph27%30.04 "HgN/A
10:00 AM86 °FPassing clouds.6 mph43%30.04 "HgN/A
9:30 AM82 °FSunny.7 mph51%30.04 "Hg10 mi
9:00 AM81 °FPassing clouds.6 mph54%30.04 "HgN/A
Weather by CustomWeather, © 2016

See weather overviewHow to use our weather pages